Tracking 19795 objects as of 20-Jul-2019
HD Live streaming from Space Station
objects crossing your sky now

SCOUT G-1 DEB

Track SCOUT G-1 DEB now!
10-day predictions


NORAD ID: 14222
Int'l Code: 1983-063C
Perigee: 679.1 km
Apogee: 707.1 km
Inclination: 82.4 °
Period: 98.5 minutes
Semi major axis: 7064 km
RCS: 0.0039 m2 (small)
Launch date: June 27, 1983
Source: United States (US)
Launch site: AIR FORCE WESTERN TEST RANGE (AFWTR)

Note: This is SATELLITE DEBRIS
aabbcc
Your satellite tracking list
Your tracking list is empty




NASA's NSSDC Master Catalog

Two Line Element Set (TLE):
1 14222U 83063C   19199.76955930 +.00000199 +00000-0 +35560-4 0  9996
2 14222 082.3728 187.4345 0019807 021.0683 339.1332 14.62241249907454
Source of the keplerian elements: AFSPC